Flag for Germany Weather past 2 weeks in Rheinberg, North Rhine-Westphalia, Germany

Now
56 °F

Light rain. Low clouds.


Feels Like: 56 °F
Forecast: 55 / 69 °F
Wind: 2 mph from Southwest

Location: Duesseldorf

Current Time: Aug 27, 2015 at 9:44:26 PM

Latest Report: Aug 27, 2015 at 9:00 PM


Visibility: 6 mi

Pressure: 29.89 "Hg

Humidity: 95%

Dew point: 55 °F

Location of RheinbergLocation

Historic Weather in Rheinberg — Graph

°F

Rheinberg temperature yesterday

Maximum temperature yesterday: 80 °F (at 6:00 PM)
Minimum temperature yesterday: 64 °F (at 1:00 AM)
Average temperature yesterday: 72 °F

Past Weeks' High & Low Weather Summary

 TemperatureHumidityPressure
High87 °F (Aug 13, 4:00 PM)98% (Aug 19, 5:00 AM)30.26 "Hg (Aug 19, 5:00 AM)
Low49 °F (Aug 19, 5:00 AM)33% (Aug 23, 2:00 PM)29.53 "Hg (Aug 24, 6:00 PM)
Average66 °F73%29.94 "Hg
* Reported Aug 12 8:00 PM — Aug 27 8:00 PM, Rheinberg, Weather by CustomWeather, © 2015

Note: Actual official high and low records may vary slightly from our data, if they occured in-between our weather recording intervals... More about our weather records

Advertising

Rheinberg weather history for previous 24 hours

 ConditionsComfort  
Time TempWeatherWind HumidityBarometerVisibility
8:00 PM
Thu, Aug 27
56 °FLight rain. Overcast.3 mph95%29.88 "Hg6 mi
7:00 PM56 °FLight rain. Overcast.2 mph92%29.88 "Hg9 mi
6:00 PM57 °FLight rain. Overcast.2 mph93%29.88 "Hg7 mi
4:00 PM59 °FLight rain. Overcast.3 mph93%29.88 "Hg9 mi
3:00 PM58 °FLight rain. Overcast.5 mph88%29.88 "Hg9 mi
2:00 PM61 °FLight rain. Overcast.8 mph89%29.87 "Hg9 mi
1:00 PM64 °FRain. Overcast.5 mph90%29.87 "Hg6 mi
12:00 PM65 °FLight rain. Overcast.5 mph84%29.86 "Hg12 mi
11:00 AM66 °FOvercast.5 mph80%29.85 "Hg19 mi
10:00 AM64 °FLight rain. Overcast.5 mph89%29.86 "Hg9 mi
9:00 AM65 °FLight rain. Overcast.3 mph90%29.85 "Hg9 mi
8:00 AM67 °FLight rain. Overcast.6 mph80%29.82 "Hg12 mi
7:00 AM68 °FLight rain. Overcast.6 mph77%29.81 "Hg19 mi
4:00 AM70 °FOvercast.5 mph71%29.78 "Hg25 mi
3:00 AM69 °FOvercast.2 mph70%29.78 "Hg28 mi
2:00 AM72 °FOvercast.3 mph60%29.78 "Hg28 mi
1:00 AM74 °FOvercast.8 mph51%29.76 "Hg28 mi
12:00 AM74 °FOvercast.6 mph51%29.76 "Hg28 mi
10:00 PM
Wed, Aug 26
76 °FPassing clouds.9 mph48%29.77 "Hg28 mi
9:00 PM77 °FOvercast.7 mph46%29.78 "Hg28 mi
Weather by CustomWeather, © 2015

See weather overviewHow to use our weather pages